Tracking 19976 objects as of 15-Nov-2019
Live streaming from Space Station
objects crossing your sky now
Track the group of recently launched Starlink satellites

NOAA 16 DEB

Track NOAA 16 DEB now!
10-day predictions


NORAD ID: 41515
Int'l Code: 2000-055MP
Perigee: 823.6 km
Apogee: 841.6 km
Inclination: 99.0 °
Period: 101.4 minutes
Semi major axis: 7203 km
RCS: Unknown
Launch date: September 21, 2000
Source: United States (US)
Launch site: AIR FORCE WESTERN TEST RANGE (AFWTR)

Note: This is SATELLITE DEBRIS
aabbcc
Your satellite tracking list
Your tracking list is empty




NASA's NSSDC Master Catalog

Two Line Element Set (TLE):
1 41515U 00055MP  19317.73533986  .00002265  00000-0  10864-2 0  9997
2 41515  99.0234  65.5138 0012546 345.1129  14.9676 14.19970928184709
Source of the keplerian elements: AFSPC